Regional Weather Roundup
Issued by NWS Cleveland, OH

Home | Current Version | Previous Version | Graphics & Text | Print | Product List | Glossary On
Versions: 1 2 3 4 5 6 7 8 9 10 11 12 13 14 15 16 17 18 19 20 21 22 23 24 25 26 27 28 29 30 31 32 33 34 35 36 37 38 39 40 41 42 43 44 45 46 47 48 49 50
000
ASUS41 KCLE 251202
RWRCLE
OHIO REGIONAL WEATHER ROUNDUP
NATIONAL WEATHER SERVICE CLEVELAND, OH
800 AM EDT TUE JUL 25 2017

NOTE: "FAIR" INDICATES FEW OR NO CLOUDS BELOW 12,000 FEET WITH NO
SIGNIFICANT WEATHER AND/OR OBSTRUCTIONS TO VISIBILITY.

OHZ001>008-015>018-024>027-034-035-043-044-251300-
   NORTHWEST OHIO

CITY           SKY/WX    TMP DP  RH WIND       PRES   REMARKS
DEFIANCE       SUNNY    N/A N/A N/A CALM      30.22R
FINDLAY        SUNNY     62  54  74 N6        30.20R
TOLEDO EXPRESS SUNNY     59  54  83 N3        30.21R
TOLEDO EXEC    SUNNY     62  57  83 NW3       30.21R
LIMA           SUNNY     60  57  89 N3        30.21R
$$

OHZ009>014-019>023-028>033-038-089-251300-
   NORTHEAST OHIO

CITY           SKY/WX    TMP DP  RH WIND       PRES   REMARKS
CLE-HOPKINS    CLOUDY    68  56  65 N10       30.19R
CLE-LAKEFRONT  CLOUDY    67  57  70 NW13      30.16R
CUY CO. ARPT   CLOUDY    66  57  72 N7        30.18R
LORAIN-ELYRIA  CLOUDY    65  53  65 N8        30.19R
ASHTABULA      CLOUDY    63  59  87 CALM      30.17R
AKRON-CANTON   CLOUDY    64  54  69 N6        30.18R
WOOSTER        CLOUDY    63  58  83 CALM      30.20R
MANSFIELD      CLOUDY    61  58  90 N3        30.20R
YOUNGSTOWN     CLOUDY    61  59  93 SW3       30.16R
$$

OHZ042-051>053-060>062-070>072-077>081-251300-
  SOUTHWEST OHIO

CITY           SKY/WX    TMP DP  RH WIND       PRES   REMARKS
CINC-COVINGTON MOSUNNY   65  61  87 E8        30.18R
CINC-LUNKEN    SUNNY     64  62  93 CALM      30.19R
HAMILTON       SUNNY     64  61  90 E3        30.20R
DAYTON         SUNNY     62  58  86 CALM      30.21R
WRIGHT-PAT AFB SUNNY     62  60  96 CALM      30.20R
DAYTON GENERAL SUNNY     62  59  90 NE6       30.19R
WILMINGTON     SUNNY     61  61 100 NE6       30.19R FOG
$$

OHZ036-037-039>041-045>050-054>059-063>069-073>076-082>088-251300-
  CENTRAL AND SOUTHEAST OHIO

CITY           SKY/WX    TMP DP  RH WIND       PRES   REMARKS
COLUMBUS       MOSUNNY   62  61  96 N3        30.18R
OSU AIRPORT    SUNNY     62  60  93 N5        30.19R
BOLTON FIELD   SUNNY     61  61 100 CALM      30.19S
RICKENBACK AFB SUNNY     61  60  97 CALM      30.19R
NEWARK         CLOUDY    60  57  89 CALM      30.19R
MARION         SUNNY     61  57  87 CALM      30.21R
LANCASTER      MOSUNNY   59  59 100 CALM      30.19R
ZANESVILLE     CLOUDY    62  58  86 NW3       30.18S
NEW PHILLY     NOT AVBL
$$




USA.gov is the U.S. government's official web portal to all federal, state and local government web resources and services.